Location: Rio Negrinho
(26.2394°S, 49.4999°W)
Time: 02:05:49
(UTC+00:00)

N. Korean satellite - Pass Details

Date: 10 August 2021
Orbit: 449 x 498 km, 97.3° (Epoch: 28 September)

Event Time Altitude Azimuth Distance (km) Brightness Sun altitude
Rises 07:50:36 0° 17° (NNE) 2,441 10.4 -27.3°
Reaches altitude 10° 07:52:37 10° 19° (NNE) 1,577 9.4 -26.8°
Enters shadow 07:52:44 11° 20° (NNE) 1,532 9.3 -26.8°
